Racine, WI

7:56 PM CDT on March 24, 2017 (GMT -0500)
Batten

Weather History for KRAC - June, 2013

Change the Weather History Date:

Friday, June 28, 2013

  Actual Average Record
Temperature  
Mean Temperature 72 °F -  
Max Temperature 81 °F 77 °F 98 °F (1971)
Min Temperature 64 °F 60 °F 50 °F (2015)
Cooling Degree Days 7    
Growing Degree Days 22 (Base 50)    
Moisture  
Dew Point 61 °F    
Average Humidity 72    
Maximum Humidity 93    
Minimum Humidity 48    
Precipitation  
Precipitation 0.03 in - - ()
Sea Level Pressure  
Sea Level Pressure 29.65 in    
Wind  
Wind Speed 8 mph (NW)    
Max Wind Speed 13 mph    
Max Gust Speed 21 mph    
Visibility 10 miles    
Events Rain    
Averages and records for this station are not official NWS values.
T = Trace of Precipitation, MM = Missing Value Source: NWS Daily Summary

Daily Weather History Graph

Daily Weather History Graph

Search for Another Location

Airport or City:

Trip Planner

Search our weather history database for the weather conditions in past years. The results will help you decide how hot, cold, wet, or windy it might be!

Date:

Astronomy

Jun. 28, 2013 Rise Set
Actual Time 5:15 AM CDT 8:33 PM CDT
Civil Twilight 4:40 AM CDT 9:08 PM CDT
Nautical Twilight 3:54 AM CDT 9:53 PM CDT
Astronomical Twilight 2:59 AM CDT 10:49 PM CDT
Moon 11:52 PM CDT (6/28) 11:31 AM CDT (6/28)
Length of Visible Light 16h 28m
Length of Day
15h 18m
Waning Gibbous, 66% of the Moon is Illuminated
Jun 28
Waning Gibbous
Jun 29
Last Quarter
Jul 8
New
Jul 15
First Quarter
Jul 22
Full

Hourly Weather History & Observations

Time (CDT) Temp. Heat Index Dew Point Humidity Pressure Visibility Wind Dir Wind Speed Gust Speed Precip Events Conditions
12:53 AM 64.9 °F - 63.0 °F 93% 29.70 in 8.0 mi West 4.6 mph - N/A   Clear
1:53 AM 66.0 °F - 63.0 °F 90% 29.69 in 10.0 mi WNW 4.6 mph - N/A   Clear
2:53 AM 66.0 °F - 63.0 °F 90% 29.69 in 10.0 mi West 5.8 mph - N/A   Partly Cloudy
3:53 AM 66.9 °F - 62.1 °F 84% 29.67 in 10.0 mi WNW 5.8 mph - N/A   Clear
4:53 AM 66.9 °F - 62.1 °F 84% 29.67 in 10.0 mi West 5.8 mph - N/A   Clear
5:53 AM 66.9 °F - 63.0 °F 87% 29.67 in 10.0 mi West 6.9 mph - N/A   Clear
6:53 AM 69.1 °F - 61.0 °F 75% 29.67 in 10.0 mi WNW 10.4 mph - N/A   Clear
7:53 AM 71.1 °F - 61.0 °F 70% 29.66 in 10.0 mi WNW 8.1 mph - N/A   Mostly Cloudy
8:53 AM 71.1 °F - 62.1 °F 73% 29.67 in 10.0 mi West 8.1 mph - 0.00 in   Clear
9:53 AM 75.9 °F - 62.1 °F 62% 29.65 in 10.0 mi WNW 11.5 mph - N/A   Clear
10:53 AM 78.1 °F - 61.0 °F 56% 29.65 in 10.0 mi NW 10.4 mph 20.7 mph N/A   Partly Cloudy
11:53 AM 79.0 °F - 60.1 °F 52% 29.65 in 10.0 mi NW 11.5 mph 19.6 mph N/A   Partly Cloudy
12:53 PM 78.1 °F - 59.0 °F 52% 29.65 in 10.0 mi NW 11.5 mph 20.7 mph N/A   Mostly Cloudy
1:53 PM 80.1 °F 80.7 °F 59.0 °F 48% 29.62 in 10.0 mi WNW 12.7 mph 19.6 mph N/A   Mostly Cloudy
2:53 PM 77.0 °F - 60.1 °F 56% 29.61 in 10.0 mi NW 12.7 mph 18.4 mph N/A   Mostly Cloudy
3:53 PM 79.0 °F - 59.0 °F 50% 29.60 in 10.0 mi WNW 11.5 mph 18.4 mph N/A   Partly Cloudy
4:53 PM 77.0 °F - 60.1 °F 56% 29.61 in 10.0 mi NW 11.5 mph - N/A   Mostly Cloudy
5:53 PM 75.9 °F - 59.0 °F 56% 29.60 in 10.0 mi North 11.5 mph - N/A   Mostly Cloudy
6:53 PM 71.1 °F - 62.1 °F 73% 29.62 in 10.0 mi NW 10.4 mph - 0.02 in   Overcast
7:53 PM 70.0 °F - 62.1 °F 76% 29.63 in 10.0 mi NNE 10.4 mph - 0.00 in   Mostly Cloudy
8:53 PM 66.0 °F - 63.0 °F 90% 29.64 in 10.0 mi North 6.9 mph - 0.01 in Rain Light Rain
9:53 PM 64.9 °F - 63.0 °F 93% 29.64 in 9.0 mi North 8.1 mph - 0.00 in Rain Light Rain
10:53 PM 64.9 °F - 60.1 °F 84% 29.64 in 10.0 mi North 8.1 mph - 0.00 in   Mostly Cloudy
11:53 PM 64.0 °F - 60.1 °F 87% 29.64 in 10.0 mi North 5.8 mph - N/A   Overcast